INTELSAT K

operational
NORAD ID: 21989 Int'l Des: 1992-032 Owner: INTEL Country: I-INT
HEOCIRCULAR

INTELSAT Kについて

説明を読み込み中...

リアルタイム位置

3D地球を読み込み中...

次回通過

高度履歴

Altitude vs Time

uPlot chart will show altitude changes over time

軌道要素

1 21989U 92032A 25342.52805028 -.00000112 00000-0 00000-0 0 9996
2 21989 14.8192 13.7549 0077419 354.9125 191.8500 0.97181296130632
Epoch: Dec 8, 2025 • Age: 12 hours

現在のステータス

高度 36343.7 km
速度 3.07 km/s
衛星直下点 -1.32°S, 72.29°W
打ち上げ日 Jun 10, 1992
運用期間 33.4 years
タイプ communications

技術仕様

分類 Payload
質量 2900.00 kg
乾燥質量 1300.00 kg
総質量 2900.00 kg
長さ 2.90 m
直径 2.30 m
スパン 21.50 m
形状 Box + 2 Pan
製造者 GEEW
バスタイプ AS5000
フェーズステータス Renamed
所有者/国 INTEL/I-INT

大規模コンステレーション

Loading constellations...